[[{"header":{"parameterUnit":"m.s-1","parameterCategory":1,"la1":30.2992,"la2":30.254,"lo1":-89.0895,"lo2":-89.0443,"dy":0.0025,"dx":0.0025,"nx":19,"ny":19,"refTime":"2026-03-29T09:00:00:Z","depth":0,"parameterNumber":2,"parameterNumberName":"U-component_of_WINDS"},"data":[0,0,0,-5.8861,-5.8862,-5.8885,-5.8885,-5.8966,-5.8968,0,0,0,0,0,0,0,0,0,0,0,-5.8884,-5.8886,-5.8861,-5.8862,-5.8885,-5.8885,-5.8966,-5.8968,0,0,0,0,0,0,0,0,0,0,0,-5.8884,-5.8886,-5.8888,-5.8862,-5.8885,-5.8885,-5.8966,-5.893,0,0,0,0,0,0,0,0,0,0,-5.8899,-5.895,-5.8885,-5.8888,-5.8863,-5.8885,-5.8885,-5.8928,-5.8932,-5.8978,0,-5.9026,0,-5.8998,-5.8976,-5.8977,0,0,0,-5.8839,-5.8947,-5.8925,-5.8888,-5.8863,-5.8885,-5.8868,-5.893,-5.8935,-5.8985,-5.9026,-5.9028,-5.9,-5.8977,-5.8978,-5.9313,-5.9316,0,0,-5.8838,-5.8905,-5.8922,-5.893,-5.8929,-5.8868,-5.8869,-5.8932,-5.8983,-5.9027,-5.9029,-5.9001,-5.8978,-5.8979,-5.9311,-5.9314,0,0,0,-5.885,-5.8906,-5.8881,-5.8928,-5.8929,-5.8869,-5.8871,-5.898,-5.8966,-5.9029,-5.9002,-5.8979,-5.898,-5.9308,-5.9312,-5.9506,0,0,0,-5.8848,-5.8912,-5.8882,-5.8923,-5.8929,-5.8954,-5.8918,-5.8962,-5.8967,-5.9002,-5.8979,-5.8982,-5.9305,-5.931,-5.9494,-5.9586,0,0,0,-5.8873,-5.8914,-5.8928,-5.8927,-5.8939,-5.8952,-5.8941,-5.8961,-5.8951,-5.8977,-5.8982,-5.9303,-5.9309,-5.9483,-5.9568,-5.9693,0,0,0,-5.8918,-5.9101,-5.8933,-5.9126,-5.8939,-5.9072,-5.894,-5.9035,-5.908,-5.8979,-5.9305,-5.9311,-5.948,-5.9558,-5.9682,-5.9808,-5.9867,0,0,-5.9186,-5.9136,-5.9244,-5.9094,-5.9273,-5.9063,-5.927,-5.9249,-5.9191,-5.9276,-5.9283,-5.9498,-5.9567,-5.969,-6.0179,-6.0227,0,0,0,-5.9352,-5.9431,-5.9463,-5.9509,-5.9497,-5.9494,-5.9433,-5.9425,-5.9494,-5.9248,-5.9575,-5.9614,-5.9684,-5.9741,-5.9781,-5.9836,-5.9341,-5.934,-5.934,-5.9827,-5.9741,-5.9915,-5.9833,-5.988,-5.9816,-5.9845,-5.9824,-5.9725,-5.9804,-5.9828,-6.0135,-6.0205,-6.0234,-6.0293,-5.9889,-5.989,-5.9891,-5.9891,-6.021,-6.0307,-6.0172,-6.0291,-6.0201,-6.0301,-6.0247,-6.0174,-6.0254,-6.011,-6.0167,-6.0015,-6.0289,-6.0336,-5.9905,-5.9903,-5.9901,-5.99,-5.9899,-6.051,-6.0541,-6.0529,-6.0586,-6.064,-6.0551,-6.0635,-6.055,-6.0471,-6.0528,-6.0543,-6.054,-6.0525,-6.0541,-6.0543,-6.0544,-6.0544,-6.0545,-6.0546,-6.0826,-6.0804,-6.0884,-6.0887,-6.0905,-6.0918,-6.0857,-6.0873,-6.0869,-6.0801,-6.08,-6.0694,-6.0332,-6.0242,-6.0562,-6.0559,-6.0557,-6.0555,-6.0554,-6.1243,-6.1135,-6.1258,-6.1277,-6.1272,-6.1332,-6.1223,-6.1263,-6.1264,-6.1309,-6.1191,-6.0937,-6.088,-6.0847,-6.0772,-6.1209,-6.1209,-6.1209,-6.1209,-6.1495,-6.1457,-6.1564,-6.1598,-6.1623,-6.1538,-6.1681,-6.1636,-6.1572,-6.1568,-6.1493,-6.1387,-6.1357,-6.1317,-6.1274,-6.1202,-6.1739,-6.174,-6.174,-6.1746,-6.1707,-6.1844,-6.1779,-6.177,-6.1765,-6.1897,-6.1943,-6.1849,-6.176,-6.1563,-6.154,-6.1368,-6.1316,-6.122,-6.1156,-6.1022,0,0]},{"header":{"parameterUnit":"m.s-1","parameterCategory":1,"la1":30.2992,"la2":30.254,"lo1":-89.0895,"lo2":-89.0443,"dy":0.0025,"dx":0.0025,"nx":19,"ny":19,"refTime":"2026-03-29T09:00:00:Z","depth":0,"parameterNumber":3,"parameterNumberName":"V-component_of_WINDS"},"data":[0,0,0,0.0471,0.0468,0.0324,0.0323,0.016,0.0159,0,0,0,0,0,0,0,0,0,0,0,0.0528,0.0528,0.0471,0.0468,0.0324,0.0323,0.016,0.0159,0,0,0,0,0,0,0,0,0,0,0,0.0529,0.0528,0.0527,0.0468,0.0324,0.0323,0.0161,0.0262,0,0,0,0,0,0,0,0,0,0,0.0398,0.0465,0.0528,0.0527,0.0467,0.0324,0.0323,0.0266,0.0255,0.0236,0,0.0223,0,0.0189,0.015,0.0149,0,0,0,0.0457,0.0474,0.0423,0.0527,0.0466,0.0324,0.0386,0.026,0.0248,0.0222,0.022,0.0214,0.0186,0.0149,0.0148,0.0076,0.0076,0,0,0.0465,0.051,0.0431,0.0416,0.0441,0.039,0.0381,0.0252,0.0253,0.022,0.0209,0.0183,0.0148,0.0147,0.0076,0.0076,0,0,0,0.0495,0.0516,0.0466,0.0423,0.0395,0.0386,0.0376,0.0259,0.0239,0.0208,0.0181,0.0147,0.0145,0.0075,0.0076,0.0129,0,0,0,0.05,0.0533,0.0471,0.0497,0.0398,0.0325,0.0386,0.0248,0.0232,0.0182,0.0147,0.0144,0.0075,0.0075,0.0127,0.0147,0,0,0,0.0533,0.0537,0.0521,0.0499,0.0439,0.0326,0.0299,0.0244,0.0217,0.0149,0.0144,0.0075,0.0075,0.0126,0.0144,0.0142,0,0,0,0.0581,0.057,0.0523,0.0501,0.0441,0.0362,0.0299,0.0238,0.0186,0.0146,0.0075,0.0076,0.0125,0.0142,0.014,0.0148,0.0155,0,0,0.0592,0.0573,0.0556,0.051,0.0451,0.038,0.0328,0.0237,0.0189,0.0116,0.0114,0.0128,0.0144,0.0141,0.0183,0.0189,0,0,0,0.0575,0.0564,0.0538,0.0492,0.0424,0.0367,0.028,0.0247,0.0183,0.0161,0.0125,0.0133,0.013,0.0131,0.0137,0.0131,0.0078,0.0078,0.0078,0.0654,0.0595,0.0564,0.0488,0.0444,0.0355,0.0314,0.0254,0.0205,0.0198,0.0175,0.0208,0.0212,0.0215,0.021,0.0175,0.0175,0.0175,0.0175,0.0665,0.064,0.0578,0.0526,0.0463,0.0418,0.0333,0.03,0.0249,0.0219,0.0213,0.0187,0.0224,0.0217,0.0179,0.0178,0.0178,0.0177,0.0177,0.071,0.0688,0.0649,0.0578,0.0529,0.0452,0.0406,0.035,0.0297,0.0291,0.0262,0.0261,0.0253,0.0281,0.0282,0.0282,0.0282,0.0282,0.0282,0.0772,0.0727,0.0696,0.0624,0.0588,0.0534,0.0446,0.0409,0.0353,0.0315,0.0315,0.0268,0.024,0.0234,0.0283,0.0283,0.0283,0.0283,0.0283,0.0805,0.0789,0.0741,0.0706,0.0618,0.0574,0.0504,0.0433,0.0394,0.0373,0.0328,0.0316,0.0292,0.0287,0.0282,0.0341,0.0341,0.0341,0.0341,0.0843,0.0826,0.0765,0.0712,0.0653,0.0586,0.0534,0.0466,0.0394,0.0366,0.0349,0.0338,0.0335,0.0312,0.0307,0.0301,0.0363,0.0363,0.0363,0.086,0.0835,0.0801,0.0732,0.066,0.0599,0.0548,0.0489,0.0403,0.0363,0.0343,0.0342,0.0322,0.0319,0.0278,0.0271,0.0259,0,0]}]]